Location: SE Lincoln, NE
(40.7805°N, 96.6275°W)
Time: 03:05:50
(UTC-05:00)

Cosmos 1633 Rocket - Pass Details

Date: 15 May 2021
Orbit: 608 x 622 km, 82.5° (Epoch: 23 June)

Event Time Altitude Azimuth Distance (km) Brightness Sun altitude
Rises 21:29:50 0° 354° (N) 2,903 7.2 -9.3°
Reaches altitude 10° 21:32:04 10° 357° (N) 1,995 6.2 -9.7°
Maximum altitude 21:36:29 71° 81° (E) 661 3.0 -10.4°
Drops below altitude 10° 21:40:52 10° 166° (SSE) 1,985 5.2 -11.0°
Enters shadow 21:41:10 - 166° (SSE) 2,105 5.3 -11.1°
